Project,Study,Ord_Occ,Event_Num,Date_Time_UTC,Date_Time_PST,Lat_Dec,Lon_Dec,Sta_ID,Line,Sta,Depth,Pressure,Temp0,Temp1,Salt0,CorrSalt0,Salt1,CorrSalt1,O2ml/L,AveCorrO2ml/L,StaCorrO2ml/L,FluorV,AveEstChl,StaEstChl,ISUSV,AveEstNO3,StaEstNO3,SigThetaTS0,SigThetaTS1,BAT,XMiss,SPAR,PAR,BTL_Depth,BTL_Temp,BTL_Salt,BTL_O2ml/L,BTL_Chl,BTL_Pha,BTL_NO3
CalCOFI,0701JD,080,,01-Feb-2007 9:05:04 AM,01-Feb-2007 1:05:04 AM,36.28432,-123.13600,066.7 065.0,066.7,065.0,1023.000,1033.119,3.8490,3.8499,34.4645,34.4632,34.4635,34.4636,0.40301,0.46,0.48,0.0248,,,1.9107,45.60,42.811,27.3834,27.3826,0.4032,90.4102,3.5591e+00,9.9990e+03,,,,,,,
CalCOFI,0701JD,080,,01-Feb-2007 9:05:05 AM,01-Feb-2007 1:05:05 AM,36.28432,-123.13600,066.7 065.0,066.7,065.0,1022.000,1032.107,3.8503,3.8509,34.4645,34.4632,34.4635,34.4636,0.40365,0.46,0.49,0.0252,,,1.9106,45.59,42.808,27.3834,27.3825,0.4034,90.4057,3.1633e+00,9.9990e+03,1022,3.85 ,34.464,  .44,.00,.01,43.5
CalCOFI,0701JD,080,,01-Feb-2007 9:05:05 AM,01-Feb-2007 1:05:05 AM,36.28432,-123.13600,066.7 065.0,066.7,065.0,1021.000,1031.094,3.8511,3.8515,34.4643,34.4630,34.4634,34.4635,0.40310,0.46,0.48,0.0247,,,1.9270,46.08,43.312,27.3831,27.3823,0.4037,90.4007,3.5399e+00,9.9990e+03,,,,,,,
CalCOFI,0701JD,080,,01-Feb-2007 9:05:06 AM,01-Feb-2007 1:05:06 AM,36.28432,-123.13600,066.7 065.0,066.7,065.0,1020.000,1030.082,3.8521,3.8527,34.4644,34.4631,34.4634,34.4635,0.40341,0.46,0.49,0.0252,,,1.9466,46.65,43.915,27.3831,27.3822,0.4031,90.4141,3.2248e+00,9.9990e+03,,,,,,,
CalCOFI,0701JD,080,,01-Feb-2007 9:05:07 AM,01-Feb-2007 1:05:07 AM,36.28432,-123.13600,066.7 065.0,066.7,065.0,1019.000,1029.070,3.8547,3.8555,34.4641,34.4628,34.4630,34.4631,0.40223,0.46,0.48,0.0249,,,1.9417,46.51,43.765,27.3826,27.3816,0.4035,90.4046,3.4165e+00,9.9990e+03,,,,,,,
CalCOFI,0701JD,080,,01-Feb-2007 9:05:08 AM,01-Feb-2007 1:05:08 AM,36.28432,-123.13600,066.7 065.0,066.7,065.0,1018.000,1028.057,3.8589,3.8598,34.4637,34.4624,34.4626,34.4627,-9.990e-29,,0.48,0.0251,,,1.9507,46.77,44.042,27.3818,27.3808,0.4032,90.4102,3.2929e+00,9.9990e+03,,,,,,,
CalCOFI,0701JD,080,,01-Feb-2007 9:05:09 AM,01-Feb-2007 1:05:09 AM,36.28432,-123.13600,066.7 065.0,066.7,065.0,1017.000,1027.045,3.8583,3.8592,34.4638,34.4625,34.4626,34.4627,0.40212,0.46,0.48,0.0247,,,1.9645,47.18,44.466,27.3819,27.3809,0.4034,90.4070,3.1828e+00,9.9990e+03,,,,,,,
CalCOFI,0701JD,080,,01-Feb-2007 9:05:12 AM,01-Feb-2007 1:05:12 AM,36.28432,-123.13600,066.7 065.0,066.7,065.0,1016.000,1026.033,3.8580,3.8593,34.4638,34.4625,34.4625,34.4626,0.39975,0.45,0.48,0.0253,,,1.9451,46.61,43.869,27.3820,27.3808,0.4036,90.4030,3.7646e+00,9.9990e+03,,,,,,,
CalCOFI,0701JD,080,,01-Feb-2007 9:05:13 AM,01-Feb-2007 1:05:13 AM,36.28432,-123.13600,066.7 065.0,066.7,065.0,1015.000,1025.020,3.8715,3.8730,34.4631,34.4618,34.4615,34.4616,0.39913,0.45,0.48,0.0251,,,1.9461,46.64,43.900,27.3800,27.3786,0.4034,90.4059,3.6120e+00,9.9990e+03,,,,,,,
CalCOFI,0701JD,080,,01-Feb-2007 9:05:14 AM,01-Feb-2007 1:05:14 AM,36.28432,-123.13600,066.7 065.0,066.7,065.0,1014.000,1024.008,3.8810,3.8816,34.4618,34.4605,34.4608,34.4609,0.39852,0.45,0.48,0.0254,,,1.9698,47.33,44.629,27.3781,27.3772,0.4035,90.4053,3.1403e+00,9.9990e+03,,,,,,,
CalCOFI,0701JD,080,,01-Feb-2007 9:05:15 AM,01-Feb-2007 1:05:15 AM,36.28432,-123.13600,066.7 065.0,066.7,065.0,1013.000,1022.996,3.8838,3.8844,34.4616,34.4603,34.4606,34.4607,0.39754,0.45,0.48,0.0256,,,1.9586,47.00,44.285,27.3776,27.3767,0.4039,90.3962,3.0258e+00,9.9990e+03,,,,,,,
CalCOFI,0701JD,080,,01-Feb-2007 9:05:16 AM,01-Feb-2007 1:05:16 AM,36.28432,-123.13600,066.7 065.0,066.7,065.0,1012.000,1021.983,3.8882,3.8889,34.4613,34.4600,34.4601,34.4602,0.39600,0.45,0.48,0.0254,,,1.9403,46.47,43.722,27.3769,27.3759,0.4036,90.4020,3.1983e+00,9.9990e+03,,,,,,,
CalCOFI,0701JD,080,,01-Feb-2007 9:05:17 AM,01-Feb-2007 1:05:17 AM,36.28432,-123.13600,066.7 065.0,066.7,065.0,1011.000,1020.971,3.8928,3.8937,34.4608,34.4595,34.4597,34.4598,0.39442,0.45,0.47,0.0248,,,1.9052,45.44,42.642,27.3761,27.3751,0.4033,90.4093,3.2630e+00,9.9990e+03,,,,,,,
CalCOFI,0701JD,080,,01-Feb-2007 9:05:18 AM,01-Feb-2007 1:05:18 AM,36.28432,-123.13600,066.7 065.0,066.7,065.0,1010.000,1019.959,3.8958,3.8965,34.4607,34.4594,34.4597,34.4598,0.39377,0.45,0.47,0.0251,,,1.9469,46.66,43.925,27.3756,27.3748,0.4039,90.3945,3.2638e+00,9.9990e+03,,,,,,,
CalCOFI,0701JD,080,,01-Feb-2007 9:05:19 AM,01-Feb-2007 1:05:19 AM,36.28432,-123.13600,066.7 065.0,066.7,065.0,1009.000,1018.946,3.8997,3.9004,34.4602,34.4589,34.4593,34.4594,0.39206,0.44,0.47,0.0251,,,1.9395,46.44,43.697,27.3749,27.3740,0.4036,90.4020,3.0535e+00,9.9990e+03,,,,,,,
CalCOFI,0701JD,080,,01-Feb-2007 9:05:20 AM,01-Feb-2007 1:05:20 AM,36.28432,-123.13600,066.7 065.0,066.7,065.0,1008.000,1017.934,3.9028,3.9034,34.4599,34.4586,34.4591,34.4592,0.39178,0.44,0.47,0.0252,,,1.9372,46.37,43.626,27.3743,27.3736,0.4037,90.3988,4.0814e+00,9.9990e+03,,,,,,,
CalCOFI,0701JD,080,,01-Feb-2007 9:05:21 AM,01-Feb-2007 1:05:21 AM,36.28432,-123.13600,066.7 065.0,066.7,065.0,1007.000,1016.922,3.9053,3.9060,34.4597,34.4584,34.4587,34.4588,0.39072,0.44,0.47,0.0250,,,1.9138,45.69,42.906,27.3739,27.3730,0.4037,90.4002,3.4381e+00,9.9990e+03,,,,,,,
CalCOFI,0701JD,080,,01-Feb-2007 9:05:22 AM,01-Feb-2007 1:05:22 AM,36.28432,-123.13600,066.7 065.0,066.7,065.0,1006.000,1015.909,3.9074,3.9081,34.4595,34.4582,34.4584,34.4585,0.38984,0.44,0.47,0.0252,,,1.9076,45.51,42.716,27.3735,27.3726,0.4040,90.3935,3.3598e+00,9.9990e+03,,,,,,,
CalCOFI,0701JD,080,,01-Feb-2007 9:05:24 AM,01-Feb-2007 1:05:24 AM,36.28432,-123.13600,066.7 065.0,066.7,065.0,1005.000,1014.897,3.9117,3.9123,34.4593,34.4580,34.4582,34.4583,0.38841,0.44,0.47,0.0252,,,1.9415,46.50,43.759,27.3729,27.3719,0.4038,90.3979,3.3065e+00,9.9990e+03,,,,,,,
CalCOFI,0701JD,080,,01-Feb-2007 9:05:25 AM,01-Feb-2007 1:05:25 AM,36.28432,-123.13600,066.7 065.0,066.7,065.0,1004.000,1013.885,3.9215,3.9203,34.4581,34.4568,34.4574,34.4575,0.38680,0.44,0.46,0.0251,,,1.9792,47.61,44.918,27.3710,27.3705,0.4036,90.4013,3.2627e+00,9.9990e+03,,,,,,,
CalCOFI,0701JD,080,,01-Feb-2007 9:05:26 AM,01-Feb-2007 1:05:26 AM,36.28432,-123.13600,066.7 065.0,066.7,065.0,1003.000,1012.872,3.9246,3.9246,34.4576,34.4563,34.4567,34.4568,0.38405,0.43,0.46,0.0253,,,1.9482,46.70,43.965,27.3702,27.3695,0.4036,90.4031,4.0130e+00,9.9990e+03,,,,,,,
CalCOFI,0701JD,080,,01-Feb-2007 9:05:27 AM,01-Feb-2007 1:05:27 AM,36.28432,-123.13600,066.7 065.0,066.7,065.0,1002.000,1011.860,3.9288,3.9293,34.4573,34.4560,34.4563,34.4564,0.38198,0.43,0.46,0.0253,,,1.9423,46.52,43.783,27.3695,27.3687,0.4042,90.3875,3.4082e+00,9.9990e+03,,,,,,,
CalCOFI,0701JD,080,,01-Feb-2007 9:05:28 AM,01-Feb-2007 1:05:28 AM,36.28432,-123.13600,066.7 065.0,066.7,065.0,1001.000,1010.848,3.9368,3.9377,34.4551,34.4538,34.4540,34.4541,0.37951,0.43,0.46,0.0253,,,1.9190,45.84,43.066,27.3670,27.3660,0.4029,90.4184,3.3438e+00,9.9990e+03,,,,,,,
CalCOFI,0701JD,080,,01-Feb-2007 9:05:29 AM,01-Feb-2007 1:05:29 AM,36.28432,-123.13600,066.7 065.0,066.7,065.0,1000.000,1009.836,3.9394,3.9399,34.4532,34.4519,34.4525,34.4526,0.37626,0.42,0.45,0.0253,,,1.9322,46.23,43.472,27.3652,27.3646,0.4024,90.4292,3.0941e+00,9.9990e+03,,,,,,,
CalCOFI,0701JD,080,,01-Feb-2007 9:05:30 AM,01-Feb-2007 1:05:30 AM,36.28432,-123.13600,066.7 065.0,066.7,065.0,999.000,1008.823,3.9419,3.9425,34.4527,34.4514,34.4518,34.4519,0.37289,0.42,0.45,0.0251,,,1.9636,47.15,44.438,27.3645,27.3638,0.4025,90.4278,2.9202e+00,9.9990e+03,,,,,,,
CalCOFI,0701JD,080,,01-Feb-2007 9:05:31 AM,01-Feb-2007 1:05:31 AM,36.28432,-123.13600,066.7 065.0,066.7,065.0,998.000,1007.811,3.9432,3.9439,34.4523,34.4510,34.4515,34.4516,0.37238,0.42,0.45,0.0256,,,1.9569,46.95,44.232,27.3641,27.3633,0.4025,90.4267,3.4283e+00,9.9990e+03,,,,,,,
CalCOFI,0701JD,080,,01-Feb-2007 9:05:32 AM,01-Feb-2007 1:05:32 AM,36.28432,-123.13600,066.7 065.0,066.7,065.0,997.000,1006.799,3.9453,3.9466,34.4518,34.4505,34.4509,34.4510,0.37107,0.42,0.44,0.0252,,,1.9523,46.82,44.091,27.3635,27.3626,0.4027,90.4229,3.4356e+00,9.9990e+03,,,,,,,
CalCOFI,0701JD,080,,01-Feb-2007 9:05:33 AM,01-Feb-2007 1:05:33 AM,36.28432,-123.13600,066.7 065.0,066.7,065.0,996.000,1005.786,3.9531,3.9540,34.4525,34.4512,34.4513,34.4514,0.36927,0.42,0.44,0.0251,,,1.9523,46.82,44.091,27.3632,27.3621,0.4030,90.4162,2.6646e+00,9.9990e+03,,,,,,,
CalCOFI,0701JD,080,,01-Feb-2007 9:05:34 AM,01-Feb-2007 1:05:34 AM,36.28432,-123.13604,066.7 065.0,066.7,065.0,995.000,1004.774,3.9565,3.9571,34.4509,34.4496,34.4502,34.4503,0.36706,0.41,0.44,0.0250,,,1.9863,47.82,45.137,27.3616,27.3610,0.4029,90.4170,3.3339e+00,9.9990e+03,,,,,,,
CalCOFI,0701JD,080,,01-Feb-2007 9:05:35 AM,01-Feb-2007 1:05:35 AM,36.28432,-123.13617,066.7 065.0,066.7,065.0,994.000,1003.762,3.9565,3.9570,34.4500,34.4487,34.4492,34.4493,0.36569,0.41,0.44,0.0247,,,1.9577,46.98,44.257,27.3609,27.3602,0.4032,90.4111,3.4386e+00,9.9990e+03,,,,,,,
CalCOFI,0701JD,080,,01-Feb-2007 9:05:37 AM,01-Feb-2007 1:05:37 AM,36.28432,-123.13618,066.7 065.0,066.7,065.0,993.000,1002.750,3.9537,3.9548,34.4503,34.4490,34.4494,34.4495,0.36253,0.41,0.43,0.0254,,,1.9613,47.08,44.368,27.3614,27.3606,0.4027,90.4222,3.5070e+00,9.9990e+03,,,,,,,
CalCOFI,0701JD,080,,01-Feb-2007 9:05:39 AM,01-Feb-2007 1:05:39 AM,36.28432,-123.13618,066.7 065.0,066.7,065.0,992.000,1001.738,3.9537,3.9549,34.4488,34.4475,34.4477,34.4478,0.36053,0.41,0.43,0.0255,,,1.9496,46.74,44.008,27.3601,27.3592,0.4028,90.4190,3.4424e+00,9.9990e+03,,,,,,,
CalCOFI,0701JD,080,,01-Feb-2007 9:05:40 AM,01-Feb-2007 1:05:40 AM,36.28432,-123.13618,066.7 065.0,066.7,065.0,991.000,1000.725,3.9633,3.9631,34.4491,34.4478,34.4479,34.4480,0.35825,0.40,0.43,0.0252,,,1.9566,46.94,44.223,27.3594,27.3585,0.4025,90.4259,2.8690e+00,9.9990e+03,,,,,,,
CalCOFI,0701JD,080,,01-Feb-2007 9:05:41 AM,01-Feb-2007 1:05:41 AM,36.28432,-123.13618,066.7 065.0,066.7,065.0,990.000,999.713,3.9677,3.9679,34.4492,34.4479,34.4485,34.4486,0.35900,0.40,0.43,0.0258,,,1.9696,47.33,44.623,27.3591,27.3585,0.4028,90.4201,3.3438e+00,9.9990e+03,,,,,,,
CalCOFI,0701JD,080,,01-Feb-2007 9:05:42 AM,01-Feb-2007 1:05:42 AM,36.28432,-123.13618,066.7 065.0,066.7,065.0,989.000,998.701,3.9691,3.9697,34.4493,34.4480,34.4486,34.4487,0.35922,0.40,0.43,0.0255,,,1.9556,46.91,44.192,27.3590,27.3584,0.4030,90.4165,3.3889e+00,9.9990e+03,,,,,,,
CalCOFI,0701JD,080,,01-Feb-2007 9:05:42 AM,01-Feb-2007 1:05:42 AM,36.28432,-123.13618,066.7 065.0,066.7,065.0,988.000,997.689,3.9727,3.9738,34.4495,34.4482,34.4483,34.4484,0.35884,0.40,0.43,0.0255,,,1.9634,47.14,44.432,27.3587,27.3577,0.4029,90.4168,2.9433e+00,9.9990e+03,,,,,,,
CalCOFI,0701JD,080,,01-Feb-2007 9:05:43 AM,01-Feb-2007 1:05:43 AM,36.28432,-123.13618,066.7 065.0,066.7,065.0,987.000,996.676,3.9796,3.9805,34.4489,34.4476,34.4483,34.4484,0.35712,0.40,0.43,0.0251,,,1.9671,47.25,44.546,27.3576,27.3570,0.4027,90.4221,3.2420e+00,9.9990e+03,,,,,,,
CalCOFI,0701JD,080,,01-Feb-2007 9:05:44 AM,01-Feb-2007 1:05:44 AM,36.28432,-123.13618,066.7 065.0,066.7,065.0,986.000,995.664,3.9815,3.9824,34.4483,34.4470,34.4472,34.4473,0.35532,0.40,0.42,0.0251,,,1.9557,46.92,44.195,27.3569,27.3560,0.4029,90.4185,3.4124e+00,9.9990e+03,,,,,,,
CalCOFI,0701JD,080,,01-Feb-2007 9:05:45 AM,01-Feb-2007 1:05:45 AM,36.28432,-123.13618,066.7 065.0,066.7,065.0,985.000,994.652,3.9842,3.9848,34.4470,34.4457,34.4463,34.4464,0.35376,0.40,0.42,0.0252,,,1.9582,46.99,44.272,27.3556,27.3549,0.4028,90.4195,3.0427e+00,9.9990e+03,,,,,,,
CalCOFI,0701JD,080,,01-Feb-2007 9:05:46 AM,01-Feb-2007 1:05:46 AM,36.28432,-123.13618,066.7 065.0,066.7,065.0,984.000,993.640,3.9862,3.9867,34.4466,34.4453,34.4460,34.4461,0.35266,0.40,0.42,0.0252,,,1.9562,46.93,44.211,27.3551,27.3545,0.4026,90.4250,3.8422e+00,9.9990e+03,,,,,,,
CalCOFI,0701JD,080,,01-Feb-2007 9:05:47 AM,01-Feb-2007 1:05:47 AM,36.28432,-123.13618,066.7 065.0,066.7,065.0,983.000,992.628,3.9873,3.9878,34.4465,34.4452,34.4458,34.4459,0.35145,0.39,0.42,0.0252,,,1.9638,47.16,44.444,27.3549,27.3543,0.4024,90.4281,3.7271e+00,9.9990e+03,,,,,,,
CalCOFI,0701JD,080,,01-Feb-2007 9:05:49 AM,01-Feb-2007 1:05:49 AM,36.28432,-123.13618,066.7 065.0,066.7,065.0,982.000,991.615,3.9869,3.9880,34.4466,34.4453,34.4457,34.4458,0.35055,0.39,0.42,0.0252,,,1.9633,47.14,44.429,27.3550,27.3542,0.4024,90.4287,3.0637e+00,9.9990e+03,,,,,,,
CalCOFI,0701JD,080,,01-Feb-2007 9:05:51 AM,01-Feb-2007 1:05:51 AM,36.28432,-123.13618,066.7 065.0,066.7,065.0,981.000,990.603,3.9887,3.9885,34.4463,34.4450,34.4457,34.4458,0.34828,0.39,0.42,0.0250,,,1.9246,46.00,43.239,27.3545,27.3541,0.4024,90.4283,2.9676e+00,9.9990e+03,,,,,,,
CalCOFI,0701JD,080,,01-Feb-2007 9:05:52 AM,01-Feb-2007 1:05:52 AM,36.28432,-123.13618,066.7 065.0,066.7,065.0,980.000,989.591,3.9972,3.9956,34.4456,34.4443,34.4448,34.4449,0.34715,0.39,0.41,0.0250,,,1.9549,46.89,44.171,27.3531,27.3527,0.4023,90.4315,3.0179e+00,9.9990e+03,,,,,,,
CalCOFI,0701JD,080,,01-Feb-2007 9:05:53 AM,01-Feb-2007 1:05:53 AM,36.28432,-123.13618,066.7 065.0,066.7,065.0,979.000,988.579,4.0012,4.0017,34.4445,34.4432,34.4439,34.4440,0.34581,0.39,0.41,0.0248,,,1.9732,47.43,44.734,27.3518,27.3513,0.4024,90.4294,2.8774e+00,9.9990e+03,,,,,,,
CalCOFI,0701JD,080,,01-Feb-2007 9:05:54 AM,01-Feb-2007 1:05:54 AM,36.28432,-123.13618,066.7 065.0,066.7,065.0,978.000,987.567,4.0021,4.0028,34.4436,34.4423,34.4428,34.4429,0.34405,0.39,0.41,0.0249,,,1.9759,47.51,44.817,27.3510,27.3503,0.4019,90.4392,3.4202e+00,9.9990e+03,,,,,,,
CalCOFI,0701JD,080,,01-Feb-2007 9:05:54 AM,01-Feb-2007 1:05:54 AM,36.28432,-123.13618,066.7 065.0,066.7,065.0,977.000,986.555,4.0068,4.0075,34.4433,34.4420,34.4424,34.4425,0.34341,0.38,0.41,0.0253,,,1.9741,47.46,44.761,27.3502,27.3495,0.4026,90.4240,3.7406e+00,9.9990e+03,,,,,,,
CalCOFI,0701JD,080,,01-Feb-2007 9:05:55 AM,01-Feb-2007 1:05:55 AM,36.28432,-123.13618,066.7 065.0,066.7,065.0,976.000,985.542,4.0076,4.0082,34.4431,34.4418,34.4424,34.4425,0.34215,0.38,0.41,0.0252,,,1.9563,46.94,44.214,27.3500,27.3494,0.4024,90.4292,3.2621e+00,9.9990e+03,,,,,,,
CalCOFI,0701JD,080,,01-Feb-2007 9:05:56 AM,01-Feb-2007 1:05:56 AM,36.28432,-123.13618,066.7 065.0,066.7,065.0,975.000,984.530,4.0073,4.0077,34.4428,34.4415,34.4422,34.4423,0.34079,0.38,0.41,0.0251,,,1.9574,46.97,44.248,27.3498,27.3493,0.4023,90.4301,3.4925e+00,9.9990e+03,,,,,,,
CalCOFI,0701JD,080,,01-Feb-2007 9:05:57 AM,01-Feb-2007 1:05:57 AM,36.28432,-123.13618,066.7 065.0,066.7,065.0,974.000,983.518,4.0070,4.0074,34.4428,34.4415,34.4422,34.4423,0.33997,0.38,0.41,0.0253,,,1.9633,47.14,44.429,27.3498,27.3493,0.4022,90.4336,3.0057e+00,9.9990e+03,,,,,,,
CalCOFI,0701JD,080,,01-Feb-2007 9:05:58 AM,01-Feb-2007 1:05:58 AM,36.28432,-123.13618,066.7 065.0,066.7,065.0,973.000,982.506,4.0057,4.0068,34.4423,34.4410,34.4418,34.4419,0.33900,0.38,0.40,0.0252,,,1.9417,46.51,43.765,27.3496,27.3491,0.4022,90.4342,3.5405e+00,9.9990e+03,,,,,,,
CalCOFI,0701JD,080,,01-Feb-2007 9:06:00 AM,01-Feb-2007 1:06:00 AM,36.28432,-123.13618,066.7 065.0,066.7,065.0,972.000,981.494,4.0018,4.0024,34.4413,34.4400,34.4407,34.4408,0.33707,0.38,0.40,0.0250,,,1.9818,47.68,44.998,27.3492,27.3486,0.4019,90.4398,3.1422e+00,9.9990e+03,,,,,,,
CalCOFI,0701JD,080,,01-Feb-2007 9:06:01 AM,01-Feb-2007 1:06:01 AM,36.28432,-123.13618,066.7 065.0,066.7,065.0,971.000,980.482,3.9991,4.0004,34.4401,34.4388,34.4400,34.4401,0.33443,0.37,0.40,0.0255,,,1.9751,47.49,44.792,27.3485,27.3482,0.4022,90.4342,3.1756e+00,9.9990e+03,,,,,,,
CalCOFI,0701JD,080,,01-Feb-2007 9:06:02 AM,01-Feb-2007 1:06:02 AM,36.28432,-123.13618,066.7 065.0,066.7,065.0,970.000,979.469,3.9976,3.9983,34.4398,34.4385,34.4390,34.4391,0.33275,0.37,0.40,0.0254,,,1.9406,46.47,43.731,27.3484,27.3477,0.4016,90.4464,3.0386e+00,9.9990e+03,,,,,,,
CalCOFI,0701JD,080,,01-Feb-2007 9:06:03 AM,01-Feb-2007 1:06:03 AM,36.28432,-123.13618,066.7 065.0,066.7,065.0,969.000,978.457,3.9995,3.9994,34.4390,34.4377,34.4385,34.4386,0.33220,0.37,0.40,0.0253,,,1.9728,47.42,44.721,27.3475,27.3472,0.4017,90.4447,3.3031e+00,9.9990e+03,,,,,,,
CalCOFI,0701JD,080,,01-Feb-2007 9:06:04 AM,01-Feb-2007 1:06:04 AM,36.28432,-123.13618,066.7 065.0,066.7,065.0,968.000,977.445,4.0069,4.0074,34.4396,34.4383,34.4386,34.4387,0.33109,0.37,0.39,0.0252,,,1.9367,46.36,43.611,27.3473,27.3464,0.4017,90.4453,3.7848e+00,9.9990e+03,,,,,,,
CalCOFI,0701JD,080,,01-Feb-2007 9:06:06 AM,01-Feb-2007 1:06:06 AM,36.28432,-123.13618,066.7 065.0,066.7,065.0,967.000,976.433,4.0127,4.0123,34.4388,34.4375,34.4383,34.4384,0.32995,0.37,0.39,0.0251,,,1.9363,46.35,43.599,27.3460,27.3457,0.4021,90.4367,3.7684e+00,9.9990e+03,,,,,,,
CalCOFI,0701JD,080,,01-Feb-2007 9:06:07 AM,01-Feb-2007 1:06:07 AM,36.28432,-123.13618,066.7 065.0,066.7,065.0,966.000,975.421,4.0114,4.0120,34.4380,34.4367,34.4374,34.4375,0.32814,0.37,0.39,0.0253,,,1.9346,46.30,43.546,27.3455,27.3450,0.4016,90.4468,2.8295e+00,9.9990e+03,,,,,,,
CalCOFI,0701JD,080,,01-Feb-2007 9:06:08 AM,01-Feb-2007 1:06:08 AM,36.28432,-123.13618,066.7 065.0,066.7,065.0,965.000,974.409,4.0136,4.0141,34.4381,34.4368,34.4375,34.4376,0.32726,0.36,0.39,0.0250,,,1.9147,45.71,42.934,27.3454,27.3449,0.4015,90.4503,2.9267e+00,9.9990e+03,,,,,,,
CalCOFI,0701JD,080,,01-Feb-2007 9:06:09 AM,01-Feb-2007 1:06:09 AM,36.28432,-123.13618,066.7 065.0,066.7,065.0,964.000,973.397,4.0153,4.0160,34.4375,34.4362,34.4369,34.4370,0.32587,0.36,0.39,0.0251,,,1.9645,47.18,44.466,27.3447,27.3441,0.4021,90.4355,3.4100e+00,9.9990e+03,,,,,,,
CalCOFI,0701JD,080,,01-Feb-2007 9:06:09 AM,01-Feb-2007 1:06:09 AM,36.28432,-123.13618,066.7 065.0,066.7,065.0,963.000,972.385,4.0167,4.0173,34.4370,34.4357,34.4362,34.4363,0.32537,0.36,0.39,0.0248,,,1.9590,47.01,44.297,27.3442,27.3434,0.4017,90.4444,3.8410e+00,9.9990e+03,,,,,,,
CalCOFI,0701JD,080,,01-Feb-2007 9:06:10 AM,01-Feb-2007 1:06:10 AM,36.28432,-123.13618,066.7 065.0,066.7,065.0,962.000,971.373,4.0221,4.0228,34.4371,34.4358,34.4361,34.4362,0.32561,0.36,0.39,0.0255,,,1.9730,47.43,44.727,27.3437,27.3427,0.4015,90.4489,3.3671e+00,9.9990e+03,,,,,,,
CalCOFI,0701JD,080,,01-Feb-2007 9:06:11 AM,01-Feb-2007 1:06:11 AM,36.28432,-123.13618,066.7 065.0,066.7,065.0,961.000,970.361,4.0321,4.0327,34.4371,34.4358,34.4364,34.4365,0.32429,0.36,0.39,0.0255,,,1.9776,47.56,44.869,27.3427,27.3420,0.4018,90.4421,3.3598e+00,9.9990e+03,,,,,,,
CalCOFI,0701JD,080,,01-Feb-2007 9:06:13 AM,01-Feb-2007 1:06:13 AM,36.28432,-123.13618,066.7 065.0,066.7,065.0,960.000,969.348,4.0359,4.0378,34.4369,34.4356,34.4364,34.4365,0.32379,0.36,0.39,0.0253,,,1.9685,47.29,44.589,27.3421,27.3415,0.4016,90.4464,3.6238e+00,9.9990e+03,,,,,,,
CalCOFI,0701JD,080,,01-Feb-2007 9:06:14 AM,01-Feb-2007 1:06:14 AM,36.28432,-123.13618,066.7 065.0,066.7,065.0,959.000,968.336,4.0364,4.0366,34.4360,34.4347,34.4356,34.4357,0.32169,0.36,0.38,0.0252,,,1.9156,45.74,42.962,27.3413,27.3409,0.4017,90.4443,2.7967e+00,9.9990e+03,,,,,,,
CalCOFI,0701JD,080,,01-Feb-2007 9:06:15 AM,01-Feb-2007 1:06:15 AM,36.28432,-123.13618,066.7 065.0,066.7,065.0,958.000,967.325,4.0459,4.0456,34.4359,34.4346,34.4350,34.4351,0.32126,0.36,0.38,0.0250,,,1.9711,47.37,44.669,27.3402,27.3396,0.4017,90.4455,3.2163e+00,9.9990e+03,,,,,,,
CalCOFI,0701JD,080,,01-Feb-2007 9:06:16 AM,01-Feb-2007 1:06:16 AM,36.28432,-123.13618,066.7 065.0,066.7,065.0,957.000,966.312,4.0518,4.0520,34.4356,34.4343,34.4350,34.4351,0.32044,0.36,0.38,0.0250,,,1.9675,47.26,44.558,27.3394,27.3389,0.4019,90.4413,3.3094e+00,9.9990e+03,,,,,,,
CalCOFI,0701JD,080,,01-Feb-2007 9:06:17 AM,01-Feb-2007 1:06:17 AM,36.28432,-123.13618,066.7 065.0,066.7,065.0,956.000,965.300,4.0577,4.0589,34.4357,34.4344,34.4348,34.4349,0.32016,0.36,0.38,0.0252,,,1.9589,47.01,44.294,27.3389,27.3380,0.4017,90.4437,3.4946e+00,9.9990e+03,,,,,,,
CalCOFI,0701JD,080,,01-Feb-2007 9:06:18 AM,01-Feb-2007 1:06:18 AM,36.28432,-123.13618,066.7 065.0,066.7,065.0,955.000,964.288,4.0626,4.0629,34.4351,34.4338,34.4345,34.4346,0.31941,0.36,0.38,0.0250,,,1.9594,47.03,44.309,27.3378,27.3374,0.4016,90.4477,3.1236e+00,9.9990e+03,,,,,,,
CalCOFI,0701JD,080,,01-Feb-2007 9:06:19 AM,01-Feb-2007 1:06:19 AM,36.28432,-123.13618,066.7 065.0,066.7,065.0,954.000,963.276,4.0666,4.0672,34.4347,34.4334,34.4342,34.4343,0.31843,0.35,0.38,0.0252,,,1.9526,46.83,44.100,27.3371,27.3366,0.4016,90.4468,3.3807e+00,9.9990e+03,,,,,,,
CalCOFI,0701JD,080,,01-Feb-2007 9:06:20 AM,01-Feb-2007 1:06:20 AM,36.28432,-123.13618,066.7 065.0,066.7,065.0,953.000,962.264,4.0667,4.0678,34.4345,34.4332,34.4340,34.4341,-9.990e-29,,0.38,0.0254,,,1.9459,46.63,43.894,27.3369,27.3364,0.4019,90.4395,3.3725e+00,9.9990e+03,,,,,,,
CalCOFI,0701JD,080,,01-Feb-2007 9:06:22 AM,01-Feb-2007 1:06:22 AM,36.28432,-123.13618,066.7 065.0,066.7,065.0,952.000,961.252,4.0674,4.0678,34.4347,34.4334,34.4339,34.4340,-9.990e-29,,0.38,0.0249,,,1.9363,46.35,43.599,27.3370,27.3364,0.4021,90.4355,2.9337e+00,9.9990e+03,,,,,,,
CalCOFI,0701JD,080,,01-Feb-2007 9:06:23 AM,01-Feb-2007 1:06:23 AM,36.28432,-123.13618,066.7 065.0,066.7,065.0,951.000,960.240,4.0714,4.0715,34.4345,34.4332,34.4340,34.4341,0.31629,0.35,0.38,0.0249,,,1.9315,46.21,43.451,27.3365,27.3361,0.4017,90.4448,3.4081e+00,9.9990e+03,,,,,,,
CalCOFI,0701JD,080,,01-Feb-2007 9:06:24 AM,01-Feb-2007 1:06:24 AM,36.28432,-123.13618,066.7 065.0,066.7,065.0,950.000,959.228,4.0736,4.0740,34.4345,34.4332,34.4339,34.4340,0.31652,0.35,0.38,0.0254,,,1.9642,47.17,44.457,27.3362,27.3357,0.4021,90.4363,3.1135e+00,9.9990e+03,,,,,,,
CalCOFI,0701JD,080,,01-Feb-2007 9:06:25 AM,01-Feb-2007 1:06:25 AM,36.28432,-123.13618,066.7 065.0,066.7,065.0,949.000,958.216,4.0755,4.0760,34.4345,34.4332,34.4339,34.4340,0.31605,0.35,0.38,0.0254,,,1.9723,47.40,44.706,27.3360,27.3355,0.4020,90.4376,2.9997e+00,9.9990e+03,,,,,,,
CalCOFI,0701JD,080,,01-Feb-2007 9:06:26 AM,01-Feb-2007 1:06:26 AM,36.28432,-123.13618,066.7 065.0,066.7,065.0,948.000,957.204,4.0779,4.0790,34.4345,34.4332,34.4339,34.4340,0.31604,0.35,0.38,0.0251,,,1.9558,46.92,44.198,27.3358,27.3352,0.4020,90.4379,3.4552e+00,9.9990e+03,,,,,,,
CalCOFI,0701JD,080,,01-Feb-2007 9:06:28 AM,01-Feb-2007 1:06:28 AM,36.28432,-123.13618,066.7 065.0,066.7,065.0,947.000,956.192,4.0820,4.0820,34.4350,34.4337,34.4343,34.4344,0.31669,0.35,0.38,0.0257,,,1.9286,46.12,43.362,27.3357,27.3352,0.4021,90.4368,3.5811e+00,9.9990e+03,,,,,,,
CalCOFI,0701JD,080,,01-Feb-2007 9:06:28 AM,01-Feb-2007 1:06:28 AM,36.28432,-123.13618,066.7 065.0,066.7,065.0,946.000,955.180,4.0861,4.0864,34.4351,34.4338,34.4346,34.4347,0.31583,0.35,0.38,0.0252,,,1.9319,46.22,43.463,27.3354,27.3349,0.4019,90.4398,3.9449e+00,9.9990e+03,,,,,,,
CalCOFI,0701JD,080,,01-Feb-2007 9:06:29 AM,01-Feb-2007 1:06:29 AM,36.28432,-123.13618,066.7 065.0,066.7,065.0,945.000,954.168,4.0870,4.0878,34.4351,34.4338,34.4347,34.4348,0.31561,0.35,0.38,0.0251,,,1.9304,46.17,43.417,27.3353,27.3349,0.4023,90.4319,3.2339e+00,9.9990e+03,,,,,,,
CalCOFI,0701JD,080,,01-Feb-2007 9:06:30 AM,01-Feb-2007 1:06:30 AM,36.28432,-123.13618,066.7 065.0,066.7,065.0,944.000,953.156,4.0921,4.0933,34.4353,34.4340,34.4346,34.4347,0.31588,0.35,0.38,0.0254,,,1.9288,46.13,43.368,27.3349,27.3342,0.4020,90.4371,3.0333e+00,9.9990e+03,,,,,,,
CalCOFI,0701JD,080,,01-Feb-2007 9:06:31 AM,01-Feb-2007 1:06:31 AM,36.28432,-123.13618,066.7 065.0,066.7,065.0,943.000,952.144,4.0965,4.0970,34.4347,34.4334,34.4343,34.4344,0.31502,0.35,0.37,0.0251,,,1.9468,46.66,43.922,27.3340,27.3336,0.4023,90.4309,3.6234e+00,9.9990e+03,,,,,,,
CalCOFI,0701JD,080,,01-Feb-2007 9:06:32 AM,01-Feb-2007 1:06:32 AM,36.28432,-123.13618,066.7 065.0,066.7,065.0,942.000,951.132,4.0999,4.1006,34.4348,34.4335,34.4343,34.4344,0.31503,0.35,0.37,0.0250,,,1.9403,46.47,43.722,27.3337,27.3333,0.4025,90.4268,3.4752e+00,9.9990e+03,,,,,,,
CalCOFI,0701JD,080,,01-Feb-2007 9:06:33 AM,01-Feb-2007 1:06:33 AM,36.28432,-123.13618,066.7 065.0,066.7,065.0,941.000,950.120,4.1078,4.1092,34.4353,34.4340,34.4347,34.4348,0.31515,0.35,0.37,0.0251,,,1.9507,46.77,44.042,27.3333,27.3326,0.4021,90.4360,3.1894e+00,9.9990e+03,,,,,,,
CalCOFI,0701JD,080,,01-Feb-2007 9:06:35 AM,01-Feb-2007 1:06:35 AM,36.28432,-123.13618,066.7 065.0,066.7,065.0,940.000,949.108,4.1086,4.1112,34.4353,34.4340,34.4348,34.4349,0.31515,0.35,0.37,0.0252,,,1.9134,45.68,42.894,27.3332,27.3325,0.4023,90.4310,3.4058e+00,9.9990e+03,,,,,,,